Location: Frankfurt am Main
(50.1109°N, 8.6821°E)
Time: 13:53:46
(UTC+01:00)

ISS - Pass Details

Date: 05 November 2021
Orbit: 417 x 422 km, 51.6° (Epoch: 07 December)

Event Time Altitude Azimuth Distance (km) Brightness Sun altitude
Exits shadow 04:48:13 35° 92° (E) 702 -2.1 -24.9°
Drops below altitude 10° 04:50:17 10° 99° (E) 1,498 0.0 -24.6°
Sets 04:52:23 0° 101° (E) 2,360 1.3 -24.2°
